SCP
0 0 -0 -0 -0 -0 -0 -0 -0 -0 -0 -0 -0 -0 -0 -0 -0 -0 -0 -0 -0 0 0 0 0 0 0
-0 0 0 -0 -0 -0 -0 -0 -0 -0 -0 -0 -0 -0 -0 -0 -0 -0 -0 -0 0 0 0 0 0 0 0
0 0 0 0 -0 -0 -0 -0 -0 0 0 0 0 -0 -0 -0 -0 -0 0 0 0 0 0 0 0 0 0
0 0 0 0 0 0 0 0 0 0 0 0 0 0 0 0 0 0 0 0 0 0 0 0 0 0 0
0 0 0 0 0 0 0 0 0 0 0 0 0 0 0 0 0 0 0 0 0 0 0 0 0 0 0
0 0 0 0 0 0 0 0 0 0 0 0 0 0 0 0 0 0 0 0 0 0 0 0 0 0 0
0 0 0 0 0 0 0 0 0 0 0 0 0 0 0 0 0 0 0 0 0 0 0 0 0 0 0
0 0 0 0 0 0 0 0 0 0 0 0 0 0 0 0 0 0 0 0 0 0 0 0 0 0 0
0 0 0 0 0 0 0 0 0 0 0 0 0 0 0 0 0 0 0 0 0 0 0 0 0 0 0
0 0 0 0 0 0 0 0 0 0 0 0 0 0 0 0 0 0 0 0 0 0 0 0 0 0 0
0 0 0 0 0 0 0 0 0 0 0 0 0 0 0 0 0 0 0 0 0 0 0 0 0 0 0
0 0 0 0 0 0 0 0 0 0 0 0 0 0 0 0 0 0 0 0 0 0 0 0 0 0 0
0 0 0 0 0 0 0 0 0 0 0 0 0 0 0 0 0 0 0 0 0 0 0 0 0 0 0
0 0 0 0 0 0 0 0 0 0 0 0 0 0 0 0 0 0 0 0 0 0 0 0 0 0 0
0 0 0 0 0 0 0 0 0 0 0 0 0 0 0 0 0 0 0 0 0 0 0 0 0 0 0
0 0 0 0 0 0 0 0 0 0 0 0 0 0 0 0 0 0 0 0 0 0 0 0 0 0 0
Wind_Speed_500mb
21 22 32 28 23 14 8 7 8 14 17 21 21 21 20 18 17 15 15 15 14 15 16 17 18 19 16
26 32 35 33 25 18 10 6 11 17 17 19 19 18 18 17 14 11 10 11 12 13 13 14 17 19 17
31 36 35 33 28 21 13 8 13 17 16 18 18 17 17 16 12 7 5 6 8 9 11 13 15 17 15
30 32 31 31 27 22 17 13 13 16 17 16 16 15 13 13 11 5 1 4 5 6 8 11 14 14 13
28 29 29 28 26 24 21 20 17 21 20 18 16 16 15 12 9 5 4 5 4 4 7 10 12 11 10
30 28 27 27 27 25 23 22 22 22 20 19 17 15 13 12 10 9 8 7 5 5 7 10 14 11 6
35 33 31 28 29 27 25 23 25 24 22 21 19 16 16 16 14 12 10 9 8 7 6 10 8 9 8
38 36 33 31 28 29 27 25 26 26 26 26 24 21 19 18 17 14 12 12 12 10 10 8 9 10 13
37 40 38 34 34 33 30 29 30 29 31 28 27 25 22 20 19 19 17 16 16 16 17 14 12 14 15
39 39 40 39 39 37 37 36 36 35 32 33 31 28 26 26 25 24 22 20 20 21 22 22 20 20 20
42 44 43 42 44 43 40 43 40 40 38 36 35 32 33 32 31 28 27 26 25 25 27 27 26 27 25
54 50 52 53 51 50 46 43 43 45 43 43 41 38 37 37 36 35 33 31 29 30 33 34 33 36 35
68 65 63 68 62 58 56 50 46 48 50 50 47 43 43 43 40 38 38 37 37 36 36 40 41 43 44
69 73 73 71 71 66 62 60 56 54 53 53 53 52 50 49 48 47 46 45 43 43 42 41 39 42 52
70 71 76 78 81 76 75 74 68 62 57 58 58 57 55 55 56 53 52 53 51 49 51 43 22 24 27
72 76 78 80 85 80 77 72 73 70 66 63 62 63 60 60 62 60 58 60 58 59 57 58 62 63 38
Wind_Direction_500mb
193 184 168 176 193 199 225 175 144 137 132 129 132 134 134 129 121 114 105 89 71 60 54 48 47 45 51
178 174 173 181 201 215 225 193 191 167 152 141 142 143 138 135 133 122 94 72 58 50 46 39 37 35 45
180 180 187 194 203 215 218 216 188 178 165 156 155 154 155 147 143 139 100 59 48 39 32 28 28 30 37
191 194 198 206 213 218 215 205 192 187 180 177 169 170 170 167 165 156 343 354 20 29 19 13 12 18 25
203 200 204 212 220 220 219 212 207 200 195 192 185 184 186 187 186 204 257 286 313 1 1 358 356 357 2
212 213 216 216 218 222 226 226 221 212 208 206 203 197 203 205 212 228 241 258 286 314 339 346 342 348 338
221 220 221 227 224 225 229 232 222 214 213 216 218 216 217 217 222 231 241 252 262 277 310 333 349 339 343
229 230 233 230 231 234 232 232 222 219 220 219 221 223 225 228 235 239 241 245 255 267 283 299 306 308 312
238 235 237 240 236 235 237 237 230 227 225 226 227 227 231 237 244 241 243 250 258 260 271 277 267 275 295
243 241 239 242 244 242 236 236 233 232 234 235 236 232 233 237 241 245 248 254 259 259 264 270 267 269 290
241 246 246 247 245 245 243 240 237 236 238 239 238 234 233 237 242 247 250 253 255 257 264 266 267 265 276
238 243 247 246 245 246 245 244 242 240 240 241 242 239 238 240 242 244 249 252 257 256 260 265 263 263 267
234 238 241 243 246 249 248 246 244 243 243 244 244 243 243 245 247 248 250 251 254 257 261 265 266 268 269
237 238 239 245 247 250 252 250 249 248 246 247 247 245 244 245 247 247 249 251 253 255 256 264 270 271 272
240 239 240 243 246 248 247 249 248 249 248 248 248 249 248 248 249 251 252 253 256 257 257 251 259 258 279
246 242 240 242 245 249 250 251 251 250 251 251 251 249 250 251 251 253 254 255 255 256 257 257 255 259 267
Wind_Speed_850mb
21 22 32 28 23 14 8 7 8 14 17 21 21 21 20 18 17 15 15 15 14 15 16 17 18 19 16
26 32 35 33 25 18 10 6 11 17 17 19 19 18 18 17 14 11 10 11 12 13 13 14 17 19 17
31 36 35 33 28 21 13 8 13 17 16 18 18 17 17 16 12 7 5 6 8 9 11 13 15 17 15
30 32 31 31 27 22 17 13 13 16 17 16 16 15 13 13 11 5 1 4 5 6 8 11 14 14 13
28 29 29 28 26 24 21 20 17 21 20 18 16 16 15 12 9 5 4 5 4 4 7 10 12 11 10
30 28 27 27 27 25 23 22 22 22 20 19 17 15 13 12 10 9 8 7 5 5 7 10 14 11 6
35 33 31 28 29 27 25 23 25 24 22 21 19 16 16 16 14 12 10 9 8 7 6 10 8 9 8
38 36 33 31 28 29 27 25 26 26 26 26 24 21 19 18 17 14 12 12 12 10 10 8 9 10 13
37 40 38 34 34 33 30 29 30 29 31 28 27 25 22 20 19 19 17 16 16 16 17 14 12 14 15
39 39 40 39 39 37 37 36 36 35 32 33 31 28 26 26 25 24 22 20 20 21 22 22 20 20 20
42 44 43 42 44 43 40 43 40 40 38 36 35 32 33 32 31 28 27 26 25 25 27 27 26 27 25
54 50 52 53 51 50 46 43 43 45 43 43 41 38 37 37 36 35 33 31 29 30 33 34 33 36 35
68 65 63 68 62 58 56 50 46 48 50 50 47 43 43 43 40 38 38 37 37 36 36 40 41 43 44
69 73 73 71 71 66 62 60 56 54 53 53 53 52 50 49 48 47 46 45 43 43 42 41 39 42 52
70 71 76 78 81 76 75 74 68 62 57 58 58 57 55 55 56 53 52 53 51 49 51 43 22 24 27
72 76 78 80 85 80 77 72 73 70 66 63 62 63 60 60 62 60 58 60 58 59 57 58 62 63 38
Wind_Direction_850mb
193 184 168 176 193 199 225 175 144 137 132 129 132 134 134 129 121 114 105 89 71 60 54 48 47 45 51
178 174 173 181 201 215 225 193 191 167 152 141 142 143 138 135 133 122 94 72 58 50 46 39 37 35 45
180 180 187 194 203 215 218 216 188 178 165 156 155 154 155 147 143 139 100 59 48 39 32 28 28 30 37
191 194 198 206 213 218 215 205 192 187 180 177 169 170 170 167 165 156 343 354 20 29 19 13 12 18 25
203 200 204 212 220 220 219 212 207 200 195 192 185 184 186 187 186 204 257 286 313 1 1 358 356 357 2
212 213 216 216 218 222 226 226 221 212 208 206 203 197 203 205 212 228 241 258 286 314 339 346 342 348 338
221 220 221 227 224 225 229 232 222 214 213 216 218 216 217 217 222 231 241 252 262 277 310 333 349 339 343
229 230 233 230 231 234 232 232 222 219 220 219 221 223 225 228 235 239 241 245 255 267 283 299 306 308 312
238 235 237 240 236 235 237 237 230 227 225 226 227 227 231 237 244 241 243 250 258 260 271 277 267 275 295
243 241 239 242 244 242 236 236 233 232 234 235 236 232 233 237 241 245 248 254 259 259 264 270 267 269 290
241 246 246 247 245 245 243 240 237 236 238 239 238 234 233 237 242 247 250 253 255 257 264 266 267 265 276
238 243 247 246 245 246 245 244 242 240 240 241 242 239 238 240 242 244 249 252 257 256 260 265 263 263 267
234 238 241 243 246 249 248 246 244 243 243 244 244 243 243 245 247 248 250 251 254 257 261 265 266 268 269
237 238 239 245 247 250 252 250 249 248 246 247 247 245 244 245 247 247 249 251 253 255 256 264 270 271 272
240 239 240 243 246 248 247 249 248 249 248 248 248 249 248 248 249 251 252 253 256 257 257 251 259 258 279
246 242 240 242 245 249 250 251 251 250 251 251 251 249 250 251 251 253 254 255 255 256 257 257 255 259 267